Terminal Aerodrome Forecast
Issued by NWS

Home | Current Version | Previous Version | Graphics & Text | Print | Product List | Glossary On
Versions: 1 2 3 4 5 6 7 8 9 10 11 12 13 14 15
000
FTUS43 KFGF 021700
TAFBJI
TAF
KBJI 021734Z 0218/0318 19008KT P6SM SCT250
     FM022100 16011G18KT P6SM BKN080
     FM030800 19011G17KT P6SM OVC030
     FM031000 22010KT 4SM -SN OVC020
     FM031400 30015G22KT 2SM -SN OVC012=

USA.gov is the U.S. government's official web portal to all federal, state and local government web resources and services.